EW5290 Weather Reports


time (UTC)temp
C
wind
direction
speed
KPH
gust
KPH
rain 1hr
cm
rain 24hr
cm
rain mn
cm
humidity
%
barometer
mb
20260906181029 20 109 0.0 3.2 0.00 0.00 0.00 97 1018.4
20260906180529 20 0 0.0 3.2 0.00 0.00 0.00 97 1018.5
20260906180053 20 121 0.0 3.2 0.00 0.00 0.00 97 1018.4
20260906175529 20 0 0.0 1.6 0.00 0.00 0.00 97 1018.4
20260906175037 20 0 0.0 1.6 0.00 0.00 0.00 97 1018.6
20260906174558 20 0 0.0 1.6 0.00 0.00 0.00 97 1018.6
20260906174030 20 0 0.0 0.0 0.00 0.00 0.00 97 1018.5
20260906173529 20 0 0.0 0.0 0.00 0.00 0.00 97 1018.6
20260906173045 20 0 0.0 0.0 0.00 0.00 0.00 97 1019.0
20260906172531 20 0 0.0 0.0 0.00 0.00 0.00 97 1019.3
20260906172029 20 0 0.0 0.0 0.00 0.00 0.00 97 1019.3
20260906171605 20 0 0.0 0.0 0.00 0.00 0.00 97 1019.4
20260906171031 20 0 0.0 0.0 0.00 0.00 0.00 97 1019.4
20260906170529 20 0 0.0 0.0 0.00 0.00 0.00 97 1019.4
20260906170056 20 0 0.0 1.6 0.00 0.00 0.00 97 1019.6
20260906165527 20 0 0.0 1.6 0.00 0.00 0.00 97 1019.5
20260906165029 20 0 0.0 3.2 0.00 0.00 0.00 97 1019.4
20260906164555 20 0 0.0 3.2 0.00 0.00 0.00 97 1019.4
20260906164030 20 0 0.0 3.2 0.00 0.00 0.00 97 1019.4
20260906163529 20 15 0.0 4.8 0.00 0.00 0.00 97 1019.5
20260906163055 20 0 0.0 4.8 0.00 0.00 0.00 97 1019.5
20260906162529 20 93 0.0 3.2 0.00 0.00 0.00 97 1019.5
20260906162030 20 0 0.0 3.2 0.00 0.00 0.00 97 1019.5
20260906161601 20 0 0.0 3.2 0.00 0.00 0.00 97 1019.5
20260906161029 20 0 0.0 3.2 0.00 0.00 0.00 97 1019.5
20260906160530 20 0 0.0 3.2 0.00 0.00 0.00 97 1019.2
20260906160055 20 107 0.0 3.2 0.00 0.00 0.00 97 1019.0
20260906155530 20 0 0.0 3.2 0.00 0.00 0.00 97 1019.2
20260906155029 20 111 0.0 1.6 0.00 0.00 0.00 97 1019.2
20260906154547 20 0 0.0 4.8 0.00 0.00 0.00 97 1019.4
20260906154030 20 0 0.0 4.8 0.00 0.00 0.00 97 1019.3
20260906153530 20 0 0.0 3.2 0.00 0.00 0.00 98 1019.2
20260906153059 20 0 0.0 3.2 0.00 0.00 0.00 98 1019.1
20260906152531 20 79 0.0 3.2 0.00 0.00 0.00 98 1019.1
20260906152029 20 0 0.0 3.2 0.00 0.00 0.00 98 1019.0
20260906151555 20 352 0.0 3.2 0.00 0.00 0.00 98 1019.1
20260906151032 20 110 0.0 4.8 0.00 0.00 0.00 98 1019.1
20260906150530 20 0 0.0 4.8 0.00 0.00 0.00 98 1019.1
20260906150059 20 0 0.0 1.6 0.00 0.00 0.00 98 1019.1
20260906145528 20 0 0.0 6.4 0.00 0.00 0.00 98 1019.0
20260906145030 20 63 0.0 6.4 0.00 0.00 0.00 98 1019.0
20260906144609 20 0 0.0 6.4 0.00 0.00 0.00 98 1019.0
20260906144027 20 120 0.0 3.2 0.00 0.00 0.00 98 1019.1
20260906143532 20 0 0.0 4.8 0.00 0.00 0.00 98 1018.9
20260906143055 20 56 0.0 4.8 0.00 0.00 0.00 98 1019.0
20260906142529 20 94 0.0 4.8 0.00 0.00 0.00 98 1019.2
20260906142029 20 0 0.0 3.2 0.00 0.00 0.00 98 1019.2
20260906141604 20 0 0.0 3.2 0.00 0.00 0.00 98 1019.2
20260906141031 20 111 0.0 3.2 0.00 0.00 0.00 99 1019.3
20260906140527 20 105 0.0 4.8 0.00 0.00 0.00 99 1019.3
20260906140047 20 266 0.0 4.8 0.00 0.00 0.00 99 1019.3
20260906135530 20 51 0.0 3.2 0.00 0.00 0.00 99 1019.2
20260906135029 20 0 0.0 3.2 0.00 0.00 0.00 99 1019.1
20260906134554 20 0 0.0 3.2 0.00 0.00 0.00 99 1019.2
20260906134029 20 0 0.0 3.2 0.00 0.00 0.00 99 1019.2
20260906133528 20 0 0.0 3.2 0.00 0.00 0.00 99 1019.1
20260906133049 20 0 0.0 3.2 0.00 0.00 0.00 99 1019.2
20260906132533 20 81 0.0 3.2 0.00 0.00 0.00 99 1019.2
20260906132031 20 0 0.0 3.2 0.00 0.00 0.00 99 1019.2
20260906131546 20 101 0.0 3.2 0.00 0.00 0.00 99 1019.2
20260906131030 20 90 0.0 3.2 0.00 0.00 0.00 99 1019.1
20260906130528 20 20 0.0 3.2 0.00 0.00 0.00 99 1019.0
20260906130056 20 0 0.0 3.2 0.00 0.00 0.00 99 1018.9
20260906125529 20 0 0.0 4.8 0.00 0.00 0.00 99 1018.7
20260906125029 20 0 0.0 4.8 0.00 0.00 0.00 99 1018.7
20260906124552 20 60 0.0 4.8 0.00 0.00 0.00 99 1018.6
20260906124028 20 0 0.0 4.8 0.00 0.00 0.00 99 1018.5
20260906123529 20 0 0.0 6.4 0.00 0.00 0.00 99 1018.5
20260906123048 20 0 0.0 6.4 0.00 0.00 0.00 99 1018.4
20260906122528 20 0 0.0 8.0 0.00 0.00 0.00 99 1018.3
20260906122029 20 0 0.0 8.0 0.00 0.00 0.00 99 1018.3
20260906121556 20 5 0.0 8.0 0.00 0.00 0.00 99 1018.2
20260906121028 20 0 0.0 3.2 0.00 0.00 0.00 99 1018.0
20260906120529 20 59 0.0 1.6 0.00 0.00 0.00 99 1018.1
20260906120105 20 0 0.0 1.6 0.00 0.00 0.00 99 1018.1
20260906115533 20 0 0.0 3.2 0.00 0.00 0.00 99 1018.1
20260906115028 20 0 0.0 3.2 0.00 0.00 0.00 99 1017.9
20260906114551 20 0 0.0 3.2 0.00 0.00 0.00 99 1017.8
20260906114027 20 104 0.0 1.6 0.00 0.00 0.00 99 1017.9
20260906113527 19 0 0.0 1.6 0.00 0.00 0.00 99 1017.9
20260906113058 19 0 0.0 1.6 0.00 0.00 0.00 98 1017.9
20260906112528 19 0 0.0 1.6 0.00 0.00 0.00 98 1017.8
20260906112030 19 0 0.0 1.6 0.00 0.00 0.00 98 1017.7
20260906111551 19 0 0.0 1.6 0.00 0.00 0.00 98 1017.7
20260906111030 19 0 0.0 1.6 0.00 0.00 0.00 98 1017.7
20260906110531 19 0 0.0 1.6 0.00 0.00 0.00 98 1017.8
20260906110055 19 0 0.0 1.6 0.00 0.00 0.00 98 1017.9
20260906105529 19 0 0.0 1.6 0.00 0.00 0.00 98 1017.8
20260906105030 19 0 0.0 1.6 0.00 0.00 0.00 98 1017.8
20260906104611 19 0 0.0 1.6 0.00 0.00 0.00 98 1017.8
20260906104029 19 0 0.0 1.6 0.00 0.00 0.00 98 1017.9
20260906103527 19 0 0.0 1.6 0.00 0.00 0.00 98 1017.9
20260906103049 19 0 0.0 0.0 0.00 0.00 0.00 98 1017.9
20260906102529 19 0 0.0 0.0 0.00 0.00 0.00 98 1018.0
20260906102030 19 0 0.0 0.0 0.00 0.00 0.00 98 1018.0
20260906101556 19 0 0.0 0.0 0.00 0.00 0.00 98 1017.9
20260906101029 19 0 0.0 0.0 0.00 0.00 0.00 98 1018.0
20260906100528 19 0 0.0 0.0 0.00 0.00 0.00 98 1017.8
20260906100054 19 0 0.0 1.6 0.00 0.00 0.00 98 1017.8
20260906095529 19 0 0.0 1.6 0.00 0.00 0.00 98 1017.7
20260906095030 19 0 0.0 1.6 0.00 0.00 0.00 98 1017.7
20260906094626 19 0 0.0 1.6 0.00 0.00 0.00 98 1017.6
20260906094034 19 106 0.0 1.6 0.00 0.00 0.00 98 1017.4
20260906093528 19 0 0.0 1.6 0.00 0.00 0.00 98 1017.3
20260906093107 19 0 0.0 1.6 0.00 0.00 0.00 98 1017.5
20260906092528 19 0 0.0 1.6 0.00 0.00 0.00 98 1017.5
20260906092031 19 0 0.0 0.0 0.00 0.00 0.00 98 1017.4
20260906091555 19 0 0.0 0.0 0.00 0.00 0.00 98 1017.5
20260906091027 19 0 0.0 0.0 0.00 0.00 0.00 98 1017.6
20260906090535 19 0 0.0 0.0 0.00 0.00 0.00 98 1017.6
20260906090051 20 0 0.0 0.0 0.00 0.00 0.00 98 1017.6
20260906085529 20 0 0.0 0.0 0.00 0.00 0.00 98 1017.4
20260906085028 20 0 0.0 0.0 0.00 0.00 0.00 98 1017.3
20260906084557 20 0 0.0 0.0 0.00 0.00 0.00 97 1017.2
20260906084028 20 0 0.0 1.6 0.00 0.00 0.00 98 1017.0
20260906083533 20 0 0.0 1.6 0.00 0.00 0.00 98 1016.9
20260906083052 20 0 0.0 1.6 0.00 0.00 0.00 98 1016.8
20260906082528 20 0 0.0 1.6 0.00 0.00 0.00 98 1016.8
20260906082027 20 0 0.0 1.6 0.00 0.00 0.00 98 1016.9
20260906081554 20 0 0.0 1.6 0.00 0.00 0.00 98 1017.0
20260906081030 20 0 0.0 0.0 0.00 0.00 0.00 98 1017.0
20260906080529 20 0 0.0 0.0 0.00 0.00 0.00 98 1017.0
20260906080055 20 0 0.0 0.0 0.00 0.00 0.00 98 1017.0
20260906075529 20 0 0.0 0.0 0.00 0.00 0.00 98 1017.0
20260906075030 20 0 0.0 1.6 0.00 0.00 0.00 98 1017.1
20260906074553 20 0 0.0 1.6 0.00 0.00 0.00 98 1017.0
20260906074029 20 0 0.0 1.6 0.00 0.00 0.00 98 1017.0
20260906073530 20 0 0.0 1.6 0.00 0.00 0.00 98 1017.0
20260906073047 20 0 0.0 1.6 0.00 0.00 0.00 98 1017.1
20260906072529 20 0 0.0 1.6 0.00 0.00 0.00 98 1017.2
20260906072030 20 0 0.0 1.6 0.00 0.00 0.00 98 1017.2
20260906071555 20 0 0.0 1.6 0.00 0.00 0.00 98 1017.3
20260906071029 20 0 0.0 0.0 0.00 0.00 0.00 98 1017.3
20260906070533 20 0 0.0 0.0 0.00 0.00 0.00 98 1017.3
20260906070057 20 0 0.0 0.0 0.00 0.00 0.00 98 1017.4
20260906065528 20 0 0.0 0.0 0.00 0.00 0.00 98 1017.4
20260906065029 20 0 0.0 0.0 0.00 0.00 0.00 98 1017.4
20260906064550 20 0 0.0 0.0 0.00 0.00 0.00 98 1017.5
20260906064029 21 0 0.0 1.6 0.00 0.00 0.00 98 1017.5
20260906063528 21 0 0.0 1.6 0.00 0.00 0.00 98 1017.6
20260906063058 21 0 0.0 1.6 0.00 0.00 0.00 98 1017.5
20260906062529 21 0 0.0 1.6 0.00 0.00 0.00 98 1017.6
20260906062028 21 0 0.0 3.2 0.00 0.00 0.00 98 1017.5
20260906061557 21 0 0.0 3.2 0.00 0.00 0.00 98 1017.4
20260906061028 21 0 0.0 3.2 0.00 0.00 0.00 98 1017.5
20260906060528 21 0 0.0 3.2 0.00 0.00 0.00 98 1017.5
20260906060057 21 42 0.0 3.2 0.00 0.00 0.00 98 1017.5
20260906055532 21 0 0.0 3.2 0.00 0.00 0.00 98 1017.6
20260906055030 21 0 0.0 1.6 0.00 0.00 0.00 98 1017.6
20260906054549 21 100 0.0 1.6 0.00 0.00 0.00 98 1017.5
20260906054028 21 63 0.0 1.6 0.00 0.00 0.00 98 1017.5
20260906053527 21 0 0.0 1.6 0.00 0.00 0.00 98 1017.6
20260906053059 21 0 0.0 1.6 0.00 0.00 0.00 98 1017.5
20260906052528 21 0 0.0 1.6 0.00 0.00 0.00 98 1017.5
20260906052029 21 0 0.0 1.6 0.00 0.00 0.00 98 1017.6
20260906051556 21 0 0.0 1.6 0.00 0.00 0.00 98 1017.6
20260906051030 21 0 0.0 0.0 0.00 0.00 0.00 98 1017.4
20260906050528 21 0 0.0 0.0 0.00 0.00 0.00 98 1017.5
20260906050113 21 0 0.0 0.0 0.00 0.00 0.00 98 1017.3
20260906045530 21 0 0.0 0.0 0.00 0.00 0.00 98 1017.1
20260906045029 21 0 0.0 0.0 0.00 0.00 0.00 97 1017.1
20260906044557 21 0 0.0 0.0 0.00 0.00 0.00 97 1017.1
20260906044029 21 0 0.0 0.0 0.00 0.00 0.00 97 1017.1
20260906043530 21 0 0.0 0.0 0.00 0.00 0.00 97 1017.1
20260906043058 21 0 0.0 0.0 0.00 0.00 0.00 97 1017.2
20260906042527 21 0 0.0 1.6 0.00 0.00 0.00 97 1017.2
20260906042029 21 0 0.0 1.6 0.00 0.00 0.00 97 1017.1
20260906041554 21 0 0.0 0.0 0.00 0.00 0.00 97 1017.1
20260906041034 21 0 0.0 1.6 0.00 0.00 0.00 97 1017.1
20260906040533 21 0 0.0 1.6 0.00 0.00 0.00 97 1017.2
20260906040114 21 0 0.0 0.0 0.00 0.00 0.00 97 1017.1
20260906035527 22 0 0.0 0.0 0.00 0.00 0.00 97 1016.9
20260906035029 22 0 0.0 0.0 0.00 0.00 0.00 97 1016.7
20260906034600 22 0 0.0 0.0 0.00 0.00 0.00 97 1017.0
20260906034028 22 0 0.0 0.0 0.00 0.00 0.00 97 1017.1
20260906033529 22 0 0.0 0.0 0.00 0.00 0.00 97 1017.1
20260906033047 22 0 0.0 0.0 0.00 0.00 0.00 97 1016.9
20260906032527 22 0 0.0 0.0 0.00 0.00 0.00 97 1017.0
20260906032028 22 0 0.0 0.0 0.00 0.00 0.00 97 1017.1
20260906031600 22 0 0.0 0.0 0.00 0.00 0.00 97 1017.1
20260906031030 22 0 0.0 0.0 0.00 0.00 0.00 96 1017.2
20260906030530 22 0 0.0 0.0 0.00 0.00 0.00 96 1017.2
20260906030053 22 0 0.0 0.0 0.00 0.00 0.00 96 1017.2
20260906025534 22 0 0.0 0.0 0.00 0.00 0.00 96 1017.0
20260906025029 22 0 0.0 0.0 0.00 0.00 0.00 96 1017.0
20260906024551 22 0 0.0 0.0 0.00 0.00 0.00 96 1017.0
20260906024031 22 0 0.0 0.0 0.00 0.00 0.00 96 1017.1
20260906023529 22 0 0.0 0.0 0.00 0.00 0.00 96 1017.1
20260906023055 22 0 0.0 0.0 0.00 0.00 0.00 96 1017.1
20260906022530 22 0 0.0 0.0 0.00 0.00 0.00 96 1017.0
20260906022033 22 0 0.0 0.0 0.00 0.00 0.00 95 1017.0
20260906021604 22 0 0.0 0.0 0.00 0.00 0.00 95 1017.0
20260906021028 22 0 0.0 0.0 0.00 0.00 0.00 95 1016.8
20260906020527 22 0 0.0 0.0 0.00 0.00 0.00 95 1016.8
20260906020059 22 0 0.0 0.0 0.00 0.00 0.00 95 1016.7
20260906015528 22 0 0.0 0.0 0.00 0.00 0.00 95 1016.5
20260906015030 23 0 0.0 0.0 0.00 0.00 0.00 95 1016.4
20260906014600 23 0 0.0 0.0 0.00 0.00 0.00 95 1016.5
20260906014029 23 0 0.0 0.0 0.00 0.00 0.00 95 1016.3
20260906013530 23 0 0.0 0.0 0.00 0.00 0.00 95 1016.2
20260906013056 23 0 0.0 0.0 0.00 0.00 0.00 95 1016.2
20260906012529 23 0 0.0 0.0 0.00 0.00 0.00 94 1016.2
20260906012030 23 0 0.0 0.0 0.00 0.00 0.00 94 1016.2
20260906011550 23 0 0.0 0.0 0.00 0.00 0.00 94 1016.2
20260906011032 23 0 0.0 0.0 0.00 0.00 0.00 94 1016.1
20260906010527 23 0 0.0 0.0 0.00 0.00 0.00 94 1016.0
20260906010051 23 0 0.0 0.0 0.00 0.00 0.00 93 1016.1
20260906005529 23 0 0.0 0.0 0.00 0.00 0.00 93 1016.1
20260906005029 23 0 0.0 0.0 0.00 0.00 0.00 93 1016.1
20260906004555 23 0 0.0 0.0 0.00 0.00 0.00 93 1016.1
20260906004030 23 0 0.0 0.0 0.00 0.00 0.00 92 1016.0
20260906003530 24 0 0.0 0.0 0.00 0.00 0.00 92 1016.0
20260906003048 24 0 0.0 0.0 0.00 0.00 0.00 92 1016.0
20260906002530 24 0 0.0 0.0 0.00 0.00 0.00 92 1016.0
20260906002031 24 0 0.0 0.0 0.00 0.00 0.00 91 1015.9
20260906001609 24 0 0.0 0.0 0.00 0.00 0.00 91 1015.9
20260906001029 24 0 0.0 0.0 0.00 0.00 0.00 91 1015.8
20260906000528 25 0 0.0 0.0 0.00 0.00 0.00 90 1015.8
20260906000056 25 0 0.0 0.0 0.00 0.00 0.00 90 1015.8
20260905235529 25 0 0.0 0.0 0.00 0.00 0.00 89 1015.8
20260905235031 25 0 0.0 0.0 0.00 0.00 0.00 89 1015.8
20260905234549 25 0 0.0 1.6 0.00 0.00 0.00 89 1015.6
20260905234032 25 0 0.0 1.6 0.00 0.00 0.00 88 1015.6
20260905233528 25 0 0.0 0.0 0.00 0.00 0.00 88 1015.7
20260905233047 25 0 0.0 0.0 0.00 0.00 0.00 88 1015.8
20260905232531 25 0 0.0 0.0 0.00 0.00 0.00 88 1015.8
20260905232029 25 0 0.0 0.0 0.00 0.00 0.00 87 1015.8
20260905231549 25 0 0.0 0.0 0.00 0.00 0.00 87 1015.6
20260905231028 25 0 0.0 0.0 0.00 0.00 0.00 87 1015.6
20260905230530 25 0 0.0 0.0 0.00 0.00 0.00 86 1015.6
20260905230056 26 0 0.0 0.0 0.00 0.00 0.00 87 1015.5
20260905225531 26 0 0.0 3.2 0.00 0.00 0.00 86 1015.4
20260905225029 26 0 0.0 3.2 0.00 0.00 0.00 85 1015.5
20260905224558 26 0 0.0 3.2 0.00 0.00 0.00 85 1015.5
20260905224028 26 0 0.0 1.6 0.00 0.00 0.00 85 1015.4
20260905223528 26 0 0.0 4.8 0.00 0.00 0.00 84 1015.2
20260905223058 26 0 0.0 4.8 0.00 0.00 0.00 83 1015.1
20260905222529 26 98 0.0 4.8 0.00 0.00 0.00 83 1015.1
20260905222033 26 86 0.0 4.8 0.00 0.00 0.00 84 1015.0
20260905221559 27 0 0.0 4.8 0.00 0.00 0.00 85 1015.1
20260905221028 27 121 0.0 3.2 0.00 0.00 0.00 86 1015.2
20260905220529 27 0 0.0 4.8 0.00 0.00 0.00 86 1015.1
20260905215527 27 52 0.0 4.8 0.00 0.00 0.00 87 1015.0
20260905215029 27 0 0.0 3.2 0.00 0.00 0.00 87 1014.9
20260905214549 26 0 0.0 3.2 0.00 0.00 0.00 87 1015.0
20260905214030 26 0 0.0 3.2 0.00 0.00 0.00 86 1014.8
20260905213530 26 88 0.0 3.2 0.00 0.00 0.00 88 1014.9
20260905213047 26 0 0.0 3.2 0.00 0.00 0.00 88 1015.0
20260905212528 26 0 0.0 6.4 0.00 0.00 0.00 88 1015.1
20260905212031 26 114 1.6 6.4 0.00 0.00 0.00 88 1015.1
20260905211553 26 69 0.0 4.8 0.00 0.00 0.00 89 1015.2
20260905211031 26 0 0.0 4.8 0.00 0.00 0.00 89 1015.2
20260905210531 26 0 0.0 3.2 0.00 0.00 0.00 89 1015.2
20260905210105 26 0 0.0 3.2 0.00 0.00 0.00 89 1015.2
20260905205528 26 96 0.0 3.2 0.00 0.00 0.00 89 1015.3
20260905205029 26 96 0.0 4.8 0.00 0.00 0.00 89 1015.3
20260905204556 26 0 0.0 4.8 0.00 0.00 0.00 90 1015.3
20260905204028 26 0 0.0 4.8 0.00 0.00 0.00 90 1015.3
20260905203530 26 104 0.0 3.2 0.00 0.00 0.00 91 1015.4
20260905203050 26 0 0.0 3.2 0.00 0.00 0.00 91 1015.4
20260905202529 26 0 0.0 3.2 0.00 0.00 0.00 91 1015.3
20260905202030 26 0 0.0 3.2 0.00 0.00 0.00 91 1015.3
20260905201605 26 0 0.0 4.8 0.00 0.00 0.00 91 1015.3
20260905201032 26 0 0.0 4.8 0.00 0.00 0.00 91 1015.4
20260905200528 26 0 0.0 3.2 0.00 0.00 0.00 91 1015.4
20260905200123 26 74 0.0 3.2 0.00 0.00 0.00 91 1015.4
20260905195531 26 0 0.0 3.2 0.00 0.00 0.00 91 1015.5
20260905195028 26 0 0.0 3.2 0.00 0.00 0.00 91 1015.5
20260905194553 26 0 0.0 4.8 0.00 0.00 0.00 91 1015.6
20260905194028 26 178 0.0 6.4 0.00 0.00 0.00 91 1015.8
20260905193530 26 0 0.0 6.4 0.00 0.00 0.00 90 1015.3
20260905193048 26 84 0.0 3.2 0.00 0.00 0.00 90 1015.2
20260905192531 26 0 0.0 3.2 0.00 0.00 0.00 90 1015.5
20260905192032 26 0 0.0 4.8 0.00 0.00 0.00 90 1015.7
20260905191550 26 0 0.0 4.8 0.00 0.00 0.00 89 1015.6
20260905191029 26 198 0.0 4.8 0.00 0.00 0.00 89 1015.5
20260905190529 26 0 0.0 4.8 0.00 0.00 0.00 89 1015.4
20260905190054 26 78 0.0 4.8 0.00 0.00 0.00 90 1015.2
20260905185530 25 0 0.0 8.0 0.00 0.00 0.00 89 1015.1
20260905185027 25 0 1.6 8.0 0.00 0.00 0.00 88 1015.1
20260905184559 25 67 0.0 3.2 0.00 0.00 0.00 89 1015.1
20260905184029 25 106 0.0 4.8 0.00 0.00 0.00 89 1015.1
20260905183528 25 96 1.6 4.8 0.00 0.00 0.00 90 1015.2
20260905183050 25 71 0.0 6.4 0.00 0.00 0.00 89 1015.2
20260905182527 25 0 0.0 6.4 0.00 0.00 0.00 90 1015.5
20260905182030 25 100 0.0 3.2 0.00 0.00 0.00 89 1015.4
20260905181555 25 103 0.0 3.2 0.00 0.00 0.00 89 1016.0